Weather History for KIMT - July, 2013

Change the Weather History Date:

Friday, July 5, 2013

  Actual Average Record
Temperature  
Mean Temperature 73 °F -  
Max Temperature 87 °F 80 °F 95 °F (2012)
Min Temperature 60 °F 52 °F 36 °F (1967)
Cooling Degree Days 8    
Growing Degree Days 23 (Base 50)    
Moisture  
Dew Point 57 °F    
Average Humidity 57    
Maximum Humidity 87    
Minimum Humidity 33    
Precipitation  
Precipitation 0.00 in - - ()
Sea Level Pressure  
Sea Level Pressure 29.96 in    
Wind  
Wind Speed 5 mph (South)    
Max Wind Speed 17 mph    
Max Gust Speed 26 mph    
Visibility 10 miles    
Events      
Averages and records for this station are not official NWS values.
T = Trace of Precipitation, MM = Missing Value Source: NWS Daily Summary

Daily Weather History Graph

Daily Weather History Graph

Search for Another Location

Airport or City:

Trip Planner

Search our weather history database for the weather conditions in past years. The results will help you decide how hot, cold, wet, or windy it might be!

Date:

Astronomy

Jul. 05, 2013 Rise Set
Actual Time 5:09 AM CDT 8:44 PM CDT
Civil Twilight 4:31 AM CDT 9:22 PM CDT
Nautical Twilight 3:40 AM CDT 10:12 PM CDT
Astronomical Twilight 2:33 AM CDT 11:19 PM CDT
Moon 3:11 AM CDT (7/5) 6:36 PM CDT (7/5)
Length of Visible Light 16h 51m
Length of Day
15h 35m
Waning Crescent, 6% of the Moon is Illuminated
Jul 5
Waning Crescent
Jul 8
New
Jul 15
First Quarter
Jul 22
Full
Jul 29
Last Quarter

Hourly Weather History & Observations

Time (CDT) Temp. Heat Index Dew Point Humidity Pressure Visibility Wind Dir Wind Speed Gust Speed Precip Events Conditions
12:54 AM 64.9 °F - 59.0 °F 81% 29.99 in 10.0 mi SE 4.6 mph - N/A   Clear
1:54 AM 64.9 °F - 57.9 °F 78% 29.99 in 10.0 mi Calm Calm - N/A   Clear
2:54 AM 61.0 °F - 57.0 °F 87% 29.99 in 10.0 mi ESE 3.5 mph - N/A   Clear
3:54 AM 61.0 °F - 57.0 °F 87% 29.99 in 10.0 mi SE 3.5 mph - N/A   Clear
4:54 AM 60.1 °F - 55.9 °F 86% 29.99 in 10.0 mi Calm Calm - N/A   Clear
5:54 AM 61.0 °F - 57.0 °F 87% 29.99 in 10.0 mi Calm Calm - N/A   Clear
6:54 AM 66.0 °F - 57.9 °F 75% 30.00 in 10.0 mi Calm Calm - N/A   Clear
7:54 AM 71.1 °F - 59.0 °F 66% 30.00 in 10.0 mi Calm Calm - N/A   Clear
8:54 AM 77.0 °F - 61.0 °F 58% 30.01 in 10.0 mi SSW 4.6 mph - N/A   Clear
9:54 AM 81.0 °F 81.3 °F 59.0 °F 47% 30.00 in 10.0 mi SW 5.8 mph - N/A   Clear
10:54 AM 82.9 °F 82.6 °F 57.9 °F 42% 29.99 in 10.0 mi SW 8.1 mph 18.4 mph N/A   Clear
11:54 AM 84.9 °F 83.7 °F 55.9 °F 37% 29.97 in 10.0 mi SSW 16.1 mph 21.9 mph N/A   Partly Cloudy
12:54 PM 84.9 °F 83.6 °F 55.0 °F 36% 29.96 in 10.0 mi South 13.8 mph - N/A   Partly Cloudy
1:54 PM 86.0 °F 84.2 °F 54.0 °F 33% 29.95 in 10.0 mi South 9.2 mph 20.7 mph N/A   Partly Cloudy
2:54 PM 86.0 °F 84.5 °F 55.0 °F 35% 29.95 in 10.0 mi SSW 12.7 mph 26.5 mph N/A   Scattered Clouds
3:54 PM 86.0 °F 84.7 °F 55.9 °F 36% 29.94 in 10.0 mi SSW 11.5 mph 20.7 mph N/A   Scattered Clouds
4:54 PM 86.0 °F 84.2 °F 54.0 °F 33% 29.93 in 10.0 mi South 17.3 mph 23.0 mph N/A   Clear
5:54 PM 84.0 °F 82.6 °F 54.0 °F 35% 29.92 in 10.0 mi SSW 9.2 mph 20.7 mph N/A   Partly Cloudy
6:54 PM 82.9 °F 82.0 °F 55.0 °F 38% 29.91 in 10.0 mi SSW 8.1 mph 17.3 mph N/A   Clear
7:54 PM 79.0 °F - 57.0 °F 47% 29.93 in 10.0 mi South 5.8 mph - N/A   Clear
8:54 PM 75.0 °F - 59.0 °F 57% 29.93 in 10.0 mi South 6.9 mph - N/A   Clear
9:54 PM 73.0 °F - 57.9 °F 59% 29.94 in 10.0 mi SSE 3.5 mph - N/A   Clear
10:54 PM 69.1 °F - 57.9 °F 68% 29.94 in 10.0 mi SSE 4.6 mph - N/A   Clear
11:54 PM 70.0 °F - 59.0 °F 68% 29.94 in 10.0 mi South 8.1 mph - N/A   Clear